Home   Weather   Greenville   Past weeks

Flag for USA Past Weather in Greenville, South Carolina, USA — Yesterday and Last 2 Weeks

Now
60 °F

Mostly cloudy.


Feels Like: 60 °F
Forecast: 52 / 66 °F
Wind: 12 mph from East

Location: Greenville Downtown Airport

Current Time: Apr 23, 2017 at 8:04:44 am

Latest Report: Apr 23, 2017 at 6:53 am


Visibility: 10 mi

Pressure: 29.87 "Hg

Humidity: 90%

Dew Point: 57 °F

Location of GreenvilleLocation

Past Weather in Greenville — Graph

°F

Greenville Temperature Yesterday

Maximum temperature yesterday: 85 °F (at 1:53 pm)
Minimum temperature yesterday: 63 °F (at 11:53 pm)
Average temperature yesterday: 74 °F

High & Low Weather Summary for the Past Weeks

 TemperatureHumidityPressure
High86 °F (Apr 21, 1:53 pm)94% (Apr 18, 1:53 am)30.37 "Hg (Apr 18, 1:53 am)
Low44 °F (Apr 9, 6:53 am)16% (Apr 8, 4:53 pm)29.78 "Hg (Apr 22, 5:53 pm)
Average68 °F60%30.17 "Hg
* Reported Apr 8 6:53 am — Apr 23 6:53 am, Greenville, Weather by CustomWeather, © 2017

Note: Actual official high and low records may vary slightly from our data, if they occured in-between our weather recording intervals... More about our weather records

Advertising

Greenville Weather History for the Previous 24 Hours

Scroll right to see more
 ConditionsComfort  
Time TempWeatherWind HumidityBarometerVisibility
6:53 am
Sun, Apr 23
60 °FMostly cloudy.12 mph90%29.87 "Hg10 mi
5:53 am60 °FLight rain. Mostly cloudy.8 mph90%29.86 "Hg10 mi
4:53 am60 °FLow clouds.12 mph90%29.86 "Hg10 mi
4:36 am60 °FLight rain. Mostly cloudy.8 mph93%29.90 "Hg10 mi
3:53 am60 °FRain. Mostly cloudy.9 mph93%29.88 "Hg7 mi
2:53 am60 °FRain. Fog.8 mph90%29.89 "Hg5 mi
1:53 am62 °FMostly cloudy.6 mph83%29.89 "Hg10 mi
12:53 am63 °FPassing clouds.13 mph78%29.89 "Hg10 mi
11:53 pm
Sat, Apr 22
63 °FOvercast.9 mph81%29.90 "Hg10 mi
10:53 pm72 °FMostly cloudy.18 mph52%29.87 "Hg10 mi
9:53 pm74 °FClear.3 mph50%29.84 "Hg10 mi
8:53 pm76 °FClear.6 mph45%29.82 "Hg10 mi
7:53 pm79 °FOvercast.8 mph39%29.80 "Hg10 mi
6:53 pm81 °FOvercast.13 mph37%29.79 "Hg10 mi
5:53 pm83 °FSunny.13 mph33%29.78 "Hg10 mi
4:53 pm83 °FSunny.13 mph31%29.79 "Hg10 mi
3:53 pm83 °FSunny.14 mph31%29.82 "Hg10 mi
1:53 pm85 °FSunny.21 mph30%29.86 "Hg10 mi
12:53 pm82 °FSunny.20 mph37%29.88 "Hg10 mi
11:53 am80 °FPassing clouds.20 mph42%29.90 "Hg10 mi
10:53 am78 °FSunny.16 mph52%29.90 "Hg10 mi
9:53 am73 °FSunny.10 mph64%29.89 "Hg10 mi
8:53 am69 °FSunny.7 mph73%29.90 "Hg10 mi
Weather by CustomWeather, © 2017

See weather overviewHow to use our weather pages